RYR43HB LICA-EPKK

Flight info

Callsign RYR43HB
Flight time N/A
Altitude 36000
Route ARBUM DCT EVINO DCT KUTID DCT VEGAN DCT XOLTA/N0462F350 DCT VEBAL DCT MOCON/N0420F230 M985 MEBAN
Aircraft B738/M-SDE2E3FGHIRWXY/LB1

Departure

Time 2026-04-23 14:14
Airport Lamezia Terme Sant'Eufemia International Airport (LICA)

Arrival

Time N/A
Airport Kraków John Paul II International Airport (EPKK)
Time Latitude Longitude Altitude Speed Heading
2026-04-23 14:04 38.90825 16.24908 31 ft 0 kts 53°
2026-04-23 14:10 38.90825 16.24909 31 ft 1 kts 53°
2026-04-23 14:11 38.90824 16.24917 29 ft 1 kts 119°
2026-04-23 14:11 38.90813 16.24916 30 ft 3 kts 183°
2026-04-23 14:11 38.90783 16.24914 31 ft 6 kts 183°
2026-04-23 14:11 38.90729 16.24921 30 ft 9 kts 159°
2026-04-23 14:12 38.90677 16.24986 32 ft 12 kts 112°
2026-04-23 14:12 38.90667 16.25059 31 ft 13 kts 98°
2026-04-23 14:12 38.90652 16.25189 32 ft 16 kts 98°
2026-04-23 14:12 38.90628 16.25342 33 ft 19 kts 110°
2026-04-23 14:13 38.90518 16.25520 33 ft 21 kts 138°
2026-04-23 14:13 38.90430 16.25584 31 ft 23 kts 188°
2026-04-23 14:13 38.90399 16.25419 32 ft 21 kts 280°
2026-04-23 14:13 38.90445 16.25050 34 ft 72 kts 278°
2026-04-23 14:14 38.90547 16.24160 26 ft 127 kts 278°
2026-04-23 14:14 38.90677 16.22888 242 ft 151 kts 276°
2026-04-23 14:14 38.90867 16.21601 925 ft 152 kts 279°
2026-04-23 14:14 38.91048 16.20137 1163 ft 177 kts 278°
2026-04-23 14:15 38.91226 16.18552 1693 ft 183 kts 280°
2026-04-23 14:15 38.91421 16.16834 1948 ft 206 kts 285°
2026-04-23 14:15 38.91636 16.14963 2106 ft 223 kts 283°
2026-04-23 14:15 38.91878 16.12927 2335 ft 235 kts 288°
2026-04-23 14:16 38.92626 16.11068 2510 ft 241 kts 315°
2026-04-23 14:16 38.93763 16.09427 2953 ft 250 kts 315°
2026-04-23 14:16 38.94906 16.07735 3659 ft 251 kts 315°
2026-04-23 14:16 38.96051 16.06025 4352 ft 253 kts 314°
2026-04-23 14:17 38.97211 16.04282 4932 ft 259 kts 314°
2026-04-23 14:17 38.98369 16.02532 5591 ft 262 kts 313°